Location: Atherton
(17.2661°S, 145.4859°E)
Time: 02:19:55
(UTC+10:00)

Explorer 11/Cluster Stage 4 - Visible Passes

Search period start: 24 June 2025 00:00
Search period end: 04 July 2025 00:00
Orbit: 463 x 1189 km, 28.8° (Epoch: 22 June)

Date Brightness Start Highest point End Pass type
(mag) Time Alt. Az. Time Alt. Az. Time Alt. Az.
24 Jun 6.3 18:12:32 10° WSW 18:18:07 87° NNW 18:22:35 10° ENE visible
24 Jun 8.4 20:02:29 10° WNW 20:05:15 16° NW 20:06:24 14° NNW visible
25 Jun 8.6 19:40:00 10° WNW 19:42:55 16° NW 19:45:34 10° N visible
26 Jun 8.8 19:17:25 10° WNW 19:20:34 16° NW 19:23:23 10° N visible
27 Jun 8.9 18:54:48 10° WNW 18:58:12 17° NW 19:01:12 10° N visible
28 Jun 9.0 18:32:10 10° WNW 18:35:47 17° NW 18:39:00 10° N visible
02 Jul 8.2 06:08:20 10° NW 06:13:27 40° NNE 06:19:41 10° E visible
03 Jul 7.9 05:46:06 10° NW 05:50:58 40° NNE 05:56:56 10° E visible
